Clinton, IA

12:59 PM CDT on May 21, 2018 (GMT -0500)
Clinton Municipal

Weather History for KCWI - November, 2010

Change the Weather History Date:

Wednesday, November 10, 2010

  Actual Average Record
Temperature  
Mean Temperature 56 °F -  
Max Temperature 68 °F 48 °F 73 °F (1949)
Min Temperature 44 °F 31 °F 16 °F (1973)
Degree Days  
Heating Degree Days 9    
Growing Degree Days 6 (Base 50)    
Moisture  
Dew Point 45 °F    
Average Humidity 67    
Maximum Humidity 93    
Minimum Humidity 49    
Precipitation  
Precipitation 0.00 in - - ()
Sea Level Pressure  
Sea Level Pressure 30.01 in    
Wind  
Wind Speed 11 mph (SE)    
Max Wind Speed 20 mph    
Max Gust Speed 24 mph    
Visibility 10 miles    
Events      
Averages and records for this station are not official NWS values.
T = Trace of Precipitation, MM = Missing Value Source: NWS Daily Summary

Daily Weather History Graph

Daily Weather History Graph

Search for Another Location

Airport or City:

Astronomy

Nov. 10, 2010 Rise Set
Actual Time 6:44 AM CST 4:45 PM CST
Civil Twilight 6:15 AM CST 5:14 PM CST
Nautical Twilight 5:41 AM CST 5:48 PM CST
Astronomical Twilight 5:08 AM CST 6:20 PM CST
Moon 11:10 AM CST (11/10) 8:46 PM CST (11/10)
Length of Visible Light 10h 59m
Length of Day
10h 00m
Waxing Crescent, 23% of the Moon is Illuminated
Nov 10
Waxing Crescent
Nov 13
First Quarter
Nov 21
Full
Nov 28
Last Quarter
Dec 5
New

Hourly Weather History & Observations

Time (CST) Temp. Windchill Dew Point Humidity Pressure Visibility Wind Dir Wind Speed Gust Speed Precip Events Conditions
12:15 AM 48.2 °F - 42.8 °F 82% 29.97 in 10.0 mi ESE 6.9 mph - N/A   Clear
12:35 AM 51.8 °F - 44.6 °F 76% 29.97 in 10.0 mi SE 11.5 mph - N/A   Clear
12:55 AM 51.8 °F - 44.6 °F 76% 29.98 in 10.0 mi SE 12.7 mph - N/A   Clear
1:15 AM 53.6 °F - 44.6 °F 72% 29.98 in 10.0 mi SE 12.7 mph - N/A   Clear
1:35 AM 51.8 °F - 42.8 °F 71% 29.98 in 10.0 mi SE 10.4 mph - N/A   Clear
1:55 AM 51.8 °F - 42.8 °F 71% 29.98 in 10.0 mi SE 11.5 mph - N/A   Clear
2:35 AM 51.8 °F - 42.8 °F 71% 29.99 in 10.0 mi SE 10.4 mph - N/A   Clear
2:55 AM 50.0 °F - 42.8 °F 76% 29.99 in 10.0 mi SE 11.5 mph - N/A   Clear
3:15 AM 51.8 °F - 42.8 °F 71% 29.99 in 10.0 mi SE 11.5 mph - N/A   Clear
3:35 AM 44.6 °F 41.4 °F 42.8 °F 93% 29.99 in 10.0 mi East 5.8 mph - N/A   Clear
3:55 AM 48.2 °F - 42.8 °F 82% 30.00 in 10.0 mi SE 10.4 mph - N/A   Clear
4:15 AM 48.2 °F - 41.0 °F 76% 30.00 in 10.0 mi SE 10.4 mph - N/A   Clear
4:35 AM 48.2 °F - 41.0 °F 76% 30.00 in 10.0 mi SE 8.1 mph - N/A   Clear
4:55 AM 48.2 °F - 41.0 °F 76% 30.00 in 10.0 mi SE 8.1 mph - N/A   Clear
5:15 AM 48.2 °F - 41.0 °F 76% 30.00 in 10.0 mi SE 9.2 mph - N/A   Clear
5:35 AM 48.2 °F - 42.8 °F 82% 30.00 in 10.0 mi East 5.8 mph - N/A   Clear
5:55 AM 46.4 °F 43.5 °F 39.2 °F 76% 30.00 in 10.0 mi East 5.8 mph - N/A   Clear
6:35 AM 44.6 °F 40.7 °F 39.2 °F 81% 30.00 in 10.0 mi East 6.9 mph - N/A   Clear
6:55 AM 44.6 °F 41.4 °F 39.2 °F 81% 30.00 in 10.0 mi East 5.8 mph - N/A   Clear
7:15 AM 46.4 °F 43.5 °F 39.2 °F 76% 30.01 in 10.0 mi ESE 5.8 mph - N/A   Clear
7:35 AM 46.4 °F 42.4 °F 41.0 °F 81% 30.01 in 10.0 mi SE 8.1 mph - N/A   Clear
7:55 AM 48.2 °F - 42.8 °F 82% 30.01 in 10.0 mi SE 9.2 mph - N/A   Clear
8:15 AM 48.2 °F - 42.8 °F 82% 30.01 in 10.0 mi SE 10.4 mph - N/A   Clear
8:35 AM 50.0 °F - 42.8 °F 76% 30.01 in 10.0 mi SE 12.7 mph - N/A   Clear
8:55 AM 50.0 °F - 42.8 °F 76% 30.01 in 10.0 mi SE 13.8 mph - N/A   Clear
9:15 AM 51.8 °F - 42.8 °F 71% 30.01 in 10.0 mi SE 11.5 mph - N/A   Clear
9:35 AM 51.8 °F - 42.8 °F 71% 30.03 in 10.0 mi SSE 10.4 mph - N/A   Clear
9:55 AM 53.6 °F - 42.8 °F 67% 30.03 in 10.0 mi SSE 11.5 mph - N/A   Clear
10:15 AM 53.6 °F - 44.6 °F 72% 30.04 in 10.0 mi SSE 10.4 mph - N/A   Clear
10:35 AM 55.4 °F - 44.6 °F 67% 30.05 in 10.0 mi SSE 11.5 mph - N/A   Clear
10:55 AM 55.4 °F - 44.6 °F 67% 30.05 in 10.0 mi South 11.5 mph - N/A   Clear
11:15 AM 57.2 °F - 44.6 °F 63% 30.04 in 10.0 mi SSE 10.4 mph - N/A   Clear
11:35 AM 59.0 °F - 44.6 °F 59% 30.03 in 10.0 mi SSE 13.8 mph - N/A   Clear
11:55 AM 60.8 °F - 44.6 °F 55% 30.02 in 10.0 mi SSE 12.7 mph - N/A   Clear
12:15 PM 62.6 °F - 46.4 °F 55% 30.01 in 10.0 mi SE 15.0 mph - N/A   Clear
12:35 PM 64.4 °F - 46.4 °F 52% 29.99 in 10.0 mi SE 15.0 mph - N/A   Clear
12:55 PM 64.4 °F - 46.4 °F 52% 29.98 in 10.0 mi SE 16.1 mph - N/A   Clear
1:15 PM 66.2 °F - 48.2 °F 52% 29.98 in 10.0 mi SSE 18.4 mph - N/A   Clear
1:35 PM 66.2 °F - 48.2 °F 52% 29.98 in 10.0 mi SE 19.6 mph 24.2 mph N/A   Clear
1:55 PM 66.2 °F - 48.2 °F 52% 29.98 in 10.0 mi SSE 18.4 mph 24.2 mph N/A   Clear
2:35 PM 68.0 °F - 48.2 °F 49% 29.99 in 10.0 mi SSE 16.1 mph - N/A   Clear
2:55 PM 68.0 °F - 48.2 °F 49% 29.99 in 10.0 mi SSE 17.3 mph 21.9 mph N/A   Clear
3:15 PM 68.0 °F - 48.2 °F 49% 29.99 in 10.0 mi SSE 17.3 mph 20.7 mph N/A   Clear
3:35 PM 66.2 °F - 48.2 °F 52% 29.99 in 10.0 mi SSE 17.3 mph - N/A   Partly Cloudy
3:55 PM 66.2 °F - 48.2 °F 52% 29.99 in 10.0 mi SE 16.1 mph - N/A   Scattered Clouds
4:15 PM 66.2 °F - 48.2 °F 52% 29.99 in 10.0 mi SSE 17.3 mph 21.9 mph N/A   Scattered Clouds
4:35 PM 64.4 °F - 48.2 °F 56% 29.99 in 10.0 mi SSE 15.0 mph 20.7 mph N/A   Partly Cloudy
4:55 PM 64.4 °F - 48.2 °F 56% 30.00 in 10.0 mi SSE 15.0 mph - N/A   Clear
5:15 PM 62.6 °F - 48.2 °F 59% 30.01 in 10.0 mi SSE 13.8 mph - N/A   Clear
5:35 PM 62.6 °F - 48.2 °F 59% 30.02 in 10.0 mi SSE 12.7 mph - N/A   Clear
5:55 PM 60.8 °F - 48.2 °F 63% 30.02 in 10.0 mi SE 11.5 mph - N/A   Clear
6:15 PM 60.8 °F - 48.2 °F 63% 30.03 in 10.0 mi SE 12.7 mph - N/A   Clear
6:35 PM 59.0 °F - 48.2 °F 67% 30.02 in 10.0 mi SE 12.7 mph - N/A   Clear
6:55 PM 59.0 °F - 48.2 °F 67% 30.03 in 10.0 mi SE 12.7 mph - N/A   Clear
7:15 PM 60.8 °F - 48.2 °F 63% 30.03 in 10.0 mi SSE 15.0 mph - N/A   Clear
7:35 PM 60.8 °F - 48.2 °F 63% 30.03 in 10.0 mi SSE 16.1 mph - N/A   Clear
7:55 PM 59.0 °F - 48.2 °F 67% 30.03 in 10.0 mi SSE 15.0 mph - N/A   Clear
8:15 PM 60.8 °F - 48.2 °F 63% 30.04 in 10.0 mi SSE 13.8 mph - N/A   Clear
8:35 PM 59.0 °F - 48.2 °F 67% 30.05 in 10.0 mi SSE 12.7 mph - N/A   Partly Cloudy
8:55 PM 57.2 °F - 48.2 °F 72% 30.05 in 10.0 mi SSE 13.8 mph - N/A   Clear
9:15 PM 57.2 °F - 48.2 °F 72% 30.06 in 10.0 mi SSE 13.8 mph - N/A   Mostly Cloudy
9:35 PM 59.0 °F - 48.2 °F 67% 30.07 in 10.0 mi SSE 9.2 mph - N/A   Mostly Cloudy
9:55 PM 59.0 °F - 48.2 °F 67% 30.08 in 10.0 mi SSE 10.4 mph - N/A   Overcast
10:15 PM 57.2 °F - 48.2 °F 72% 30.08 in 10.0 mi SSE 10.4 mph - N/A   Overcast
10:35 PM 57.2 °F - 48.2 °F 72% 30.08 in 10.0 mi SSE 10.4 mph - N/A   Scattered Clouds
10:55 PM 55.4 °F - 48.2 °F 77% 30.09 in 10.0 mi SSE 10.4 mph - N/A   Clear
11:15 PM 55.4 °F - 48.2 °F 77% 30.09 in 10.0 mi SSE 10.4 mph - N/A   Scattered Clouds
11:35 PM 55.4 °F - 48.2 °F 77% 30.10 in 10.0 mi SSE 9.2 mph - N/A   Mostly Cloudy
11:55 PM 57.2 °F - 48.2 °F 72% 30.10 in 10.0 mi SSE 10.4 mph - N/A   Overcast